Regional Weather Roundup
Issued by NWS Albany, NY

Home | Current Version | Previous Version | Graphics & Text | Print | Product List | Glossary Off
Versions: 1 2 3 4 5 6 7 8 9 10 11 12 13 14 15 16 17 18 19 20 21 22 23 24 25 26 27 28 29 30 31 32 33 34 35 36 37 38 39 40 41 42 43 44 45 46 47 48 49 50

000
ASUS41 KALY 251710
RWRALY

NEW YORK STATE HOURLY WEATHER ROUNDUP
NATIONAL WEATHER SERVICE ALBANY NY
100 PM EDT MON MAY 25 2015

NOTE: "FAIR" INDICATES FEW OR NO CLOUDS BELOW 12,000 FEET WITH NO
SIGNIFICANT WEATHER AND/OR NO OBSTRUCTIONS TO VISIBILITY.

NYZ032-033-038>043-046>054-057>066-NYZ062>081-251800-
EAST


CITY           SKY/WX    TMP DP  RH WIND       PRES   REMARKS
ALBANY         CLOUDY    76  50  40 S12G18    30.17F
GLENS FALLS    CLOUDY    68  53  58 S5        30.17F
POUGHKEEPSIE   MOSUNNY   81  59  47 S7        30.17F
NEWBURGH       MOSUNNY   81  64  57 VRB6      30.20F
MONTGOMERY     SUNNY     84  58  40 S13       30.17F
WHITE PLAINS   MOSUNNY   81  58  45 SE10G18   30.22F
ISLIP          MOSUNNY   72  58  61 S10       30.24F
NEW YORK CITY  MOSUNNY   81  57  43 S13       30.22F
CENTRAL PARK   MOSUNNY   84  57  39 MISG      30.24F
$$

NYZ005>009-017-018-044>046-055-056-251800-
CENTRAL


CITY           SKY/WX    TMP DP  RH WIND       PRES   REMARKS
FULTON         MOSUNNY   80  57  45 S9        30.08F
SYRACUSE       PTSUNNY   82  56  40 CALM      30.08F
ROME           PTSUNNY   74  56  53 E9        30.13F
ELMIRA         PTSUNNY   83  56  39 S12G22    30.11F
BINGHAMTON     SUNNY     78  55  44 SW12G24   30.17F
MONTICELLO     SUNNY     81  57  44 SW12G23   30.22F
$$

NYZ026>034-041>043-251800-
NORTH


CITY           SKY/WX    TMP DP  RH WIND       PRES   REMARKS
WATERTOWN      CLOUDY    79  52  38 S14G20    30.05F
FORT DRUM      NOT AVBL
MASSENA        LGT RAIN  64  59  83 CALM      30.13F
SARANAC LAKE   CLOUDY    66  52  60 SW8       30.15F
PLATTSBURGH    LGT RAIN  61  53  75 SE7       30.14F
$$

NYZ001>004-010>016-019>021-251800-
WEST


CITY           SKY/WX    TMP DP  RH WIND       PRES   REMARKS
NIAGARA FALLS  PTSUNNY   76  60  57 SW18G29   30.05S
BUFFALO        LGT RAIN  70  61  73 W18G36    30.08R
DUNKIRK        CLOUDY    73  66  78 S6        30.08F
JAMESTOWN      MOSUNNY   77  57  50 SW16G22   30.14F
WELLSVILLE     PTSUNNY   79  54  41 SW13G22   30.18F
ROCHESTER      PTSUNNY   87  53  31 SW20G26   30.05F
PENN YAN       SUNNY     84  56  38 SW13      30.10F
$$

             KEY
       WCI = WIND CHILL INDEX
       VSB = VISIBILITY
       HX  = HEAT INDEX
$$


USA.gov is the U.S. government's official web portal to all federal, state and local government web resources and services.